THY7KF LTFM-LOWW

Flight info

Callsign THY7KF
Flight time 1h 50m
Altitude 40000
Route TUDBU1D/35L TUDBU DCT ETUBA DCT APROB DCT BALUX DCT TORNO DCT NATEX NATEX2W
Aircraft A359/H-SDE2E3GHIJ3J4J5LM1ORWXY/LB1D1

Departure

Time 2026-05-05 19:02
Airport İstanbul Airport (LTFM)

Arrival

Time 2026-05-05 20:53
Airport Vienna International Airport (LOWW)
Time Latitude Longitude Altitude Speed Heading
2026-05-05 18:41 41.26069 28.73593 340 ft 0 kts 106°
2026-05-05 18:50 41.26071 28.73586 340 ft 2 kts 106°
2026-05-05 18:50 41.26075 28.73565 334 ft 2 kts 104°
2026-05-05 18:51 41.26079 28.73544 334 ft 2 kts 102°
2026-05-05 18:51 41.26082 28.73522 334 ft 2 kts 97°
2026-05-05 18:51 41.26083 28.73500 334 ft 2 kts 82°
2026-05-05 18:51 41.26075 28.73481 334 ft 2 kts 14°
2026-05-05 18:52 41.26059 28.73475 334 ft 2 kts 16°
2026-05-05 18:52 41.26044 28.73469 334 ft 2 kts 17°
2026-05-05 18:52 41.26031 28.73464 334 ft 1 kts 17°
2026-05-05 18:52 41.26030 28.73464 334 ft 0 kts 17°
2026-05-05 18:57 41.26031 28.73464 340 ft 2 kts 17°
2026-05-05 18:57 41.26078 28.73484 337 ft 10 kts 17°
2026-05-05 18:58 41.26152 28.73513 337 ft 13 kts 14°
2026-05-05 18:58 41.26216 28.73485 337 ft 8 kts 299°
2026-05-05 18:58 41.26221 28.73405 336 ft 10 kts 268°
2026-05-05 18:58 41.26218 28.73296 337 ft 13 kts 268°
2026-05-05 18:59 41.26216 28.73160 337 ft 16 kts 269°
2026-05-05 18:59 41.26216 28.73002 337 ft 18 kts 269°
2026-05-05 18:59 41.26215 28.72968 338 ft 0 kts 269°
2026-05-05 19:00 41.26215 28.72936 338 ft 14 kts 269°
2026-05-05 19:00 41.26212 28.72769 340 ft 20 kts 269°
2026-05-05 19:00 41.26210 28.72583 335 ft 12 kts 269°
2026-05-05 19:00 41.26226 28.72538 336 ft 5 kts 323°
2026-05-05 19:01 41.26271 28.72526 340 ft 8 kts 358°
2026-05-05 19:01 41.26284 28.72525 335 ft 3 kts 358°
2026-05-05 19:01 41.26367 28.72522 336 ft 38 kts 358°
2026-05-05 19:01 41.26909 28.72511 336 ft 114 kts 359°
2026-05-05 19:02 41.27923 28.72490 393 ft 172 kts 359°
2026-05-05 19:02 41.29161 28.72451 1019 ft 181 kts 359°
2026-05-05 19:02 41.30448 28.72437 1751 ft 190 kts 359°
2026-05-05 19:02 41.31798 28.72430 2344 ft 196 kts 359°
2026-05-05 19:03 41.33177 28.72401 2915 ft 206 kts 358°
2026-05-05 19:03 41.34663 28.72378 3336 ft 224 kts 359°
2026-05-05 19:03 41.36274 28.72409 3865 ft 237 kts
2026-05-05 19:03 41.37909 28.72397 4710 ft 234 kts 354°
2026-05-05 19:04 41.39486 28.71793 5422 ft 240 kts 340°
2026-05-05 19:04 41.41031 28.70857 6105 ft 247 kts 336°
2026-05-05 19:04 41.42585 28.69849 6833 ft 250 kts 336°
2026-05-05 19:04 41.44157 28.68828 7562 ft 252 kts 336°
2026-05-05 19:05 41.45743 28.67804 8289 ft 255 kts 337°
2026-05-05 19:05 41.47331 28.66784 9000 ft 258 kts 337°
2026-05-05 19:05 41.48943 28.65697 9736 ft 262 kts 332°
2026-05-05 19:05 41.50408 28.64183 10316 ft 274 kts 319°
2026-05-05 19:06 41.51693 28.62184 10625 ft 294 kts 312°
2026-05-05 19:06 41.52952 28.59933 10908 ft 310 kts 310°
2026-05-05 19:06 41.54237 28.57558 11316 ft 320 kts 309°
2026-05-05 19:06 41.55546 28.55115 11855 ft 326 kts 309°
2026-05-05 19:07 41.56869 28.52634 12411 ft 330 kts 309°
2026-05-05 19:07 41.57752 28.50975 12800 ft 333 kts 309°
2026-05-05 19:07 41.59547 28.47615 13561 ft 338 kts 309°
2026-05-05 19:07 41.60922 28.45047 14115 ft 341 kts 309°
2026-05-05 19:08 41.62308 28.42460 14608 ft 345 kts 309°
2026-05-05 19:08 41.63708 28.39845 15139 ft 348 kts 309°
2026-05-05 19:08 41.65124 28.37200 15667 ft 351 kts 309°
2026-05-05 19:08 41.66547 28.34540 16198 ft 354 kts 309°
2026-05-05 19:09 41.67986 28.31851 16714 ft 357 kts 308°
2026-05-05 19:09 41.69418 28.29171 17226 ft 360 kts 308°
2026-05-05 19:09 41.70879 28.26433 17755 ft 363 kts 308°
2026-05-05 19:09 41.72352 28.23671 18264 ft 366 kts 308°
2026-05-05 19:10 41.73839 28.20881 18734 ft 369 kts 308°
2026-05-05 19:10 41.75335 28.18069 19164 ft 372 kts 308°
2026-05-05 19:10 41.76842 28.15236 19597 ft 375 kts 308°
2026-05-05 19:10 41.78362 28.12376 20043 ft 378 kts 308°
2026-05-05 19:11 41.79889 28.09498 20476 ft 381 kts 308°
2026-05-05 19:11 41.81408 28.06634 20901 ft 383 kts 308°
2026-05-05 19:11 41.82955 28.03714 21334 ft 386 kts 308°
2026-05-05 19:11 41.84515 28.00768 21772 ft 388 kts 307°
2026-05-05 19:12 41.86078 27.97812 22194 ft 391 kts 307°
2026-05-05 19:12 41.87658 27.94822 22622 ft 393 kts 307°
2026-05-05 19:12 41.89243 27.91819 23036 ft 396 kts 307°
2026-05-05 19:12 41.90836 27.88799 23468 ft 398 kts 307°
2026-05-05 19:13 41.92439 27.85756 23835 ft 401 kts 307°
2026-05-05 19:13 41.94051 27.82692 24186 ft 403 kts 307°
2026-05-05 19:13 41.95654 27.79650 24516 ft 405 kts 307°
2026-05-05 19:13 41.97418 27.76691 24823 ft 407 kts 313°
2026-05-05 19:14 41.99324 27.73877 25186 ft 408 kts 315°
2026-05-05 19:14 42.01301 27.71122 25538 ft 410 kts 316°
2026-05-05 19:14 42.03316 27.68391 25893 ft 413 kts 316°
2026-05-05 19:14 42.05354 27.65662 26255 ft 415 kts 316°
2026-05-05 19:15 42.07408 27.62916 26629 ft 418 kts 316°
2026-05-05 19:15 42.09448 27.60173 27024 ft 421 kts 316°
2026-05-05 19:15 42.11517 27.57367 27418 ft 424 kts 316°
2026-05-05 19:15 42.13592 27.54531 27820 ft 427 kts 315°
2026-05-05 19:16 42.15678 27.51667 28230 ft 430 kts 315°
2026-05-05 19:16 42.17780 27.48770 28660 ft 433 kts 315°
2026-05-05 19:16 42.19890 27.45857 29085 ft 436 kts 315°
2026-05-05 19:16 42.22018 27.42917 29503 ft 440 kts 315°
2026-05-05 19:17 42.24162 27.39952 29943 ft 443 kts 315°
2026-05-05 19:17 42.26326 27.36957 30337 ft 447 kts 315°
2026-05-05 19:17 42.28502 27.33942 30768 ft 448 kts 315°
2026-05-05 19:17 42.30651 27.30964 31203 ft 450 kts 315°
2026-05-05 19:18 42.32839 27.27926 31629 ft 452 kts 315°
2026-05-05 19:18 42.35029 27.24883 32051 ft 453 kts 315°
2026-05-05 19:18 42.37227 27.21827 32471 ft 455 kts 315°
2026-05-05 19:18 42.39438 27.18748 32884 ft 456 kts 315°
2026-05-05 19:19 42.41496 27.15880 33240 ft 458 kts 315°
2026-05-05 19:19 42.41633 27.15689 33264 ft 458 kts 315°
2026-05-05 19:20 42.43093 27.13653 33518 ft 459 kts 315°
2026-05-05 19:20 42.43770 27.12709 33632 ft 460 kts 315°
2026-05-05 19:21 42.45247 27.10646 33880 ft 461 kts 315°
2026-05-05 19:21 42.48240 27.06463 34291 ft 464 kts 315°
2026-05-05 19:21 42.50454 27.03365 34599 ft 465 kts 315°
2026-05-05 19:21 42.52709 27.00205 35004 ft 464 kts 315°
2026-05-05 19:22 42.54947 26.97065 35452 ft 462 kts 315°
2026-05-05 19:22 42.57175 26.93935 35896 ft 461 kts 315°
2026-05-05 19:22 42.59396 26.90811 36330 ft 459 kts 315°
2026-05-05 19:22 42.61615 26.87688 36740 ft 459 kts 315°
2026-05-05 19:23 42.63078 26.85628 37008 ft 458 kts 315°
2026-05-05 19:23 42.65286 26.82515 37403 ft 457 kts 315°
2026-05-05 19:23 42.67493 26.79400 37798 ft 456 kts 315°
2026-05-05 19:23 42.70402 26.75290 38322 ft 455 kts 315°
2026-05-05 19:24 42.72598 26.72182 38694 ft 455 kts 315°
2026-05-05 19:24 42.74793 26.69074 38928 ft 456 kts 315°
2026-05-05 19:24 42.76248 26.67011 39098 ft 456 kts 315°
2026-05-05 19:24 42.78440 26.63901 39338 ft 456 kts 315°
2026-05-05 19:25 42.80639 26.60776 39562 ft 457 kts 315°
2026-05-05 19:25 42.82855 26.57676 39800 ft 457 kts 315°
2026-05-05 19:25 42.85104 26.54602 40010 ft 459 kts 316°
2026-05-05 19:25 42.88127 26.50530 40039 ft 463 kts 316°
2026-05-05 19:26 42.91980 26.45378 40040 ft 464 kts 316°
2026-05-05 19:26 42.96561 26.39239 40038 ft 465 kts 316°
2026-05-05 19:27 43.01167 26.33039 40031 ft 465 kts 316°
2026-05-05 19:27 43.05781 26.26806 40028 ft 466 kts 316°
2026-05-05 19:28 43.10388 26.20569 40022 ft 466 kts 316°
2026-05-05 19:28 43.14998 26.14314 40015 ft 466 kts 316°
2026-05-05 19:29 43.19571 26.08095 40018 ft 467 kts 316°
2026-05-05 19:29 43.24175 26.01820 40016 ft 467 kts 316°
2026-05-05 19:30 43.28774 25.95537 40015 ft 467 kts 316°
2026-05-05 19:30 43.33374 25.89239 40012 ft 466 kts 316°
2026-05-05 19:31 43.37965 25.82940 40012 ft 466 kts 315°
2026-05-05 19:31 43.42515 25.76682 40011 ft 465 kts 315°
2026-05-05 19:32 43.47085 25.70382 40003 ft 465 kts 315°
2026-05-05 19:32 43.51664 25.64057 40001 ft 469 kts 315°
2026-05-05 19:33 43.56316 25.57617 40000 ft 479 kts 315°
2026-05-05 19:33 43.61001 25.51116 39999 ft 482 kts 315°
2026-05-05 19:34 43.65726 25.44543 39998 ft 482 kts 315°
2026-05-05 19:35 43.72804 25.34667 39997 ft 482 kts 315°
2026-05-05 19:35 43.77513 25.28076 39996 ft 482 kts 315°
2026-05-05 19:36 43.82192 25.21513 39995 ft 482 kts 315°
2026-05-05 19:36 43.86896 25.14897 39994 ft 482 kts 315°
2026-05-05 19:37 43.91597 25.08272 39990 ft 482 kts 315°
2026-05-05 19:37 43.96265 25.01676 39992 ft 482 kts 315°
2026-05-05 19:38 44.00843 24.94889 39992 ft 482 kts 313°
2026-05-05 19:38 44.05289 24.87910 39993 ft 482 kts 312°
2026-05-05 19:39 44.09700 24.80880 39992 ft 482 kts 312°
2026-05-05 19:39 44.14109 24.73852 39987 ft 482 kts 312°
2026-05-05 19:40 44.18496 24.66870 39990 ft 482 kts 312°
2026-05-05 19:40 44.22912 24.59831 39990 ft 482 kts 312°
2026-05-05 19:41 44.27326 24.52777 39989 ft 482 kts 312°
2026-05-05 19:41 44.31729 24.45721 39986 ft 482 kts 312°
2026-05-05 19:42 44.36130 24.38650 39988 ft 482 kts 312°
2026-05-05 19:42 44.40496 24.31616 39990 ft 482 kts 312°
2026-05-05 19:43 44.44883 24.24533 39988 ft 482 kts 312°
2026-05-05 19:43 44.49271 24.17430 39991 ft 482 kts 312°
2026-05-05 19:44 44.53648 24.10328 39992 ft 482 kts 311°
2026-05-05 19:44 44.57993 24.03259 39990 ft 482 kts 311°
2026-05-05 19:45 44.62362 23.96134 39985 ft 482 kts 311°
2026-05-05 19:45 44.66723 23.89002 39980 ft 482 kts 311°
2026-05-05 19:46 44.71081 23.81859 39984 ft 482 kts 311°
2026-05-05 19:46 44.75408 23.74750 39984 ft 481 kts 311°
2026-05-05 19:47 44.79754 23.67591 39985 ft 481 kts 311°
2026-05-05 19:47 44.84104 23.60408 39986 ft 481 kts 311°
2026-05-05 19:48 44.88443 23.53224 39984 ft 481 kts 311°
2026-05-05 19:48 44.92771 23.46037 39991 ft 481 kts 311°
2026-05-05 19:49 44.97069 23.38885 39993 ft 481 kts 311°
2026-05-05 19:49 45.01393 23.31672 39997 ft 481 kts 311°
2026-05-05 19:50 45.05716 23.24442 40001 ft 481 kts 311°
2026-05-05 19:50 45.10031 23.17205 40007 ft 481 kts 311°
2026-05-05 19:51 45.14312 23.10006 40015 ft 481 kts 310°
2026-05-05 19:51 45.18620 23.02743 40036 ft 482 kts 310°
2026-05-05 19:52 45.22923 22.95471 40018 ft 482 kts 310°
2026-05-05 19:52 45.27156 22.88299 40018 ft 482 kts 310°
2026-05-05 19:53 45.31427 22.81043 40036 ft 482 kts 310°
2026-05-05 19:53 45.35722 22.73728 40016 ft 482 kts 310°
2026-05-05 19:54 45.40016 22.66398 40014 ft 482 kts 310°
2026-05-05 19:54 45.44279 22.59099 40016 ft 482 kts 310°
2026-05-05 19:55 45.47852 22.52968 40001 ft 482 kts 310°
2026-05-05 19:55 45.52132 22.45604 39992 ft 482 kts 310°
2026-05-05 19:56 45.56411 22.38224 39998 ft 483 kts 310°
2026-05-05 19:56 45.60632 22.30925 39974 ft 483 kts 309°
2026-05-05 19:57 45.64873 22.23572 39984 ft 483 kts 309°
2026-05-05 19:57 45.68612 22.17075 39963 ft 483 kts 309°
2026-05-05 19:58 45.72879 22.09638 39972 ft 483 kts 309°
2026-05-05 19:58 45.77138 22.02198 39949 ft 483 kts 309°
2026-05-05 19:59 45.81398 21.94735 39959 ft 484 kts 309°
2026-05-05 19:59 45.85625 21.87312 39955 ft 484 kts 309°
2026-05-05 20:00 45.89874 21.79827 39946 ft 484 kts 309°
2026-05-05 20:00 45.94119 21.72332 39950 ft 484 kts 309°
2026-05-05 20:01 45.98365 21.64814 39945 ft 484 kts 309°
2026-05-05 20:01 46.02550 21.57383 39943 ft 484 kts 308°
2026-05-05 20:02 46.06335 21.50647 39941 ft 484 kts 308°
2026-05-05 20:02 46.09080 21.45750 39929 ft 484 kts 308°
2026-05-05 20:03 46.12991 21.38758 39929 ft 484 kts 308°
2026-05-05 20:03 46.14805 21.35509 39929 ft 484 kts 308°
2026-05-05 20:04 46.17524 21.30634 39937 ft 484 kts 308°
2026-05-05 20:04 46.20781 21.24780 39942 ft 484 kts 308°
2026-05-05 20:05 46.22066 21.22468 39949 ft 484 kts 308°
2026-05-05 20:05 46.25158 21.16896 39948 ft 484 kts 308°
2026-05-05 20:06 46.29340 21.09342 39947 ft 484 kts 308°
2026-05-05 20:06 46.33543 21.01732 39942 ft 484 kts 308°
2026-05-05 20:07 46.37742 20.94108 39922 ft 484 kts 308°
2026-05-05 20:07 46.41932 20.86476 39913 ft 484 kts 308°
2026-05-05 20:08 46.46100 20.78866 39916 ft 484 kts 308°
2026-05-05 20:08 46.50284 20.71203 39918 ft 485 kts 308°
2026-05-05 20:09 46.54468 20.63521 39915 ft 485 kts 308°
2026-05-05 20:09 46.58641 20.55836 39916 ft 485 kts 308°
2026-05-05 20:10 46.62817 20.48126 39913 ft 485 kts 307°
2026-05-05 20:10 46.66957 20.40461 39913 ft 485 kts 307°
2026-05-05 20:11 46.71124 20.32723 39910 ft 485 kts 307°
2026-05-05 20:11 46.75281 20.24983 39910 ft 485 kts 307°
2026-05-05 20:12 46.79439 20.17220 39919 ft 485 kts 307°
2026-05-05 20:12 46.83561 20.09501 39926 ft 485 kts 307°
2026-05-05 20:13 46.87712 20.01708 39929 ft 486 kts 307°
2026-05-05 20:13 46.91853 19.93909 39935 ft 486 kts 307°
2026-05-05 20:14 46.95994 19.86089 39940 ft 486 kts 307°
2026-05-05 20:14 47.00130 19.78257 39942 ft 486 kts 307°
2026-05-05 20:15 47.04234 19.70464 39936 ft 486 kts 307°
2026-05-05 20:15 47.08228 19.62858 39932 ft 487 kts 307°
2026-05-05 20:16 47.12362 19.54963 39929 ft 487 kts 307°
2026-05-05 20:16 47.16484 19.47070 39924 ft 487 kts 307°
2026-05-05 20:17 47.20589 19.39187 39819 ft 481 kts 307°
2026-05-05 20:17 47.22595 19.35329 39169 ft 480 kts 306°
2026-05-05 20:17 47.24609 19.31447 38720 ft 475 kts 306°
2026-05-05 20:17 47.26603 19.27596 38207 ft 470 kts 306°
2026-05-05 20:18 47.28578 19.23777 37547 ft 468 kts 306°
2026-05-05 20:18 47.30545 19.19966 36842 ft 467 kts 306°
2026-05-05 20:18 47.32502 19.16159 36122 ft 466 kts 305°
2026-05-05 20:18 47.34253 19.12146 35386 ft 465 kts 297°
2026-05-05 20:19 47.35722 19.07896 34647 ft 465 kts 295°
2026-05-05 20:19 47.37096 19.03648 33950 ft 465 kts 294°
2026-05-05 20:19 47.38445 18.99329 33235 ft 463 kts 294°
2026-05-05 20:19 47.39773 18.95021 32612 ft 459 kts 293°
2026-05-05 20:20 47.41086 18.90749 32010 ft 455 kts 293°
2026-05-05 20:20 47.42392 18.86512 31429 ft 452 kts 293°
2026-05-05 20:20 47.43693 18.82305 30869 ft 448 kts 293°
2026-05-05 20:20 47.44981 18.78146 30322 ft 444 kts 293°
2026-05-05 20:21 47.46265 18.74005 29751 ft 441 kts 293°
2026-05-05 20:21 47.47539 18.69897 29110 ft 438 kts 293°
2026-05-05 20:21 47.48783 18.65880 28513 ft 434 kts 293°
2026-05-05 20:21 47.50031 18.61841 27931 ft 431 kts 293°
2026-05-05 20:22 47.51273 18.57818 27346 ft 428 kts 293°
2026-05-05 20:22 47.52500 18.53834 26780 ft 424 kts 292°
2026-05-05 20:22 47.53688 18.49853 26221 ft 420 kts 289°
2026-05-05 20:22 47.54639 18.45790 25679 ft 417 kts 287°
2026-05-05 20:23 47.55532 18.41725 25135 ft 414 kts 286°
2026-05-05 20:23 47.56402 18.37684 24613 ft 410 kts 285°
2026-05-05 20:23 47.57247 18.33722 24083 ft 408 kts 285°
2026-05-05 20:23 47.58094 18.29736 23547 ft 405 kts 285°
2026-05-05 20:24 47.58936 18.25769 22947 ft 402 kts 285°
2026-05-05 20:24 47.59771 18.21827 22337 ft 399 kts 285°
2026-05-05 20:24 47.60595 18.17924 21745 ft 396 kts 285°
2026-05-05 20:24 47.61415 18.14040 21163 ft 393 kts 285°
2026-05-05 20:25 47.62226 18.10186 20592 ft 390 kts 285°
2026-05-05 20:25 47.63031 18.06358 20027 ft 387 kts 285°
2026-05-05 20:25 47.63827 18.02563 19498 ft 384 kts 285°
2026-05-05 20:25 47.64605 17.98846 18966 ft 381 kts 284°
2026-05-05 20:26 47.65387 17.95103 18440 ft 379 kts 284°
2026-05-05 20:26 47.66163 17.91385 17891 ft 376 kts 284°
2026-05-05 20:26 47.66930 17.87699 17295 ft 373 kts 284°
2026-05-05 20:26 47.67691 17.84039 16724 ft 370 kts 284°
2026-05-05 20:27 47.68446 17.80404 16154 ft 367 kts 284°
2026-05-05 20:27 47.69190 17.76809 15601 ft 364 kts 284°
2026-05-05 20:27 47.69928 17.73237 15056 ft 361 kts 284°
2026-05-05 20:27 47.70650 17.69742 14626 ft 357 kts 284°
2026-05-05 20:28 47.71375 17.66223 14319 ft 356 kts 284°
2026-05-05 20:28 47.72093 17.62713 14131 ft 355 kts 284°
2026-05-05 20:28 47.72818 17.59201 14015 ft 355 kts 284°
2026-05-05 20:28 47.73542 17.55701 13867 ft 354 kts 284°
2026-05-05 20:29 47.74243 17.52207 13718 ft 352 kts 282°
2026-05-05 20:29 47.74573 17.48635 13561 ft 347 kts 268°
2026-05-05 20:29 47.74420 17.45070 13408 ft 345 kts 262°
2026-05-05 20:29 47.74162 17.41538 13246 ft 344 kts 261°
2026-05-05 20:30 47.73891 17.38015 13083 ft 343 kts 261°
2026-05-05 20:30 47.73629 17.34542 12925 ft 342 kts 261°
2026-05-05 20:30 47.73369 17.31036 12767 ft 341 kts 261°
2026-05-05 20:30 47.73113 17.27536 12610 ft 341 kts 262°
2026-05-05 20:31 47.72860 17.24037 12452 ft 340 kts 262°
2026-05-05 20:31 47.72610 17.20562 12303 ft 339 kts 261°
2026-05-05 20:31 47.72357 17.17090 12146 ft 337 kts 262°
2026-05-05 20:31 47.72106 17.13631 12007 ft 336 kts 261°
2026-05-05 20:32 47.71854 17.10178 11878 ft 336 kts 262°
2026-05-05 20:32 47.71838 17.06710 11753 ft 339 kts 274°
2026-05-05 20:32 47.72543 17.03361 11617 ft 344 kts 294°
2026-05-05 20:32 47.73841 17.00421 11507 ft 346 kts 303°
2026-05-05 20:33 47.75293 16.97569 11379 ft 346 kts 304°
2026-05-05 20:33 47.76753 16.94731 11251 ft 345 kts 304°
2026-05-05 20:33 47.78204 16.91894 11121 ft 345 kts 303°
2026-05-05 20:33 47.79647 16.89046 11012 ft 344 kts 304°
2026-05-05 20:34 47.81081 16.86215 10872 ft 343 kts 303°
2026-05-05 20:34 47.82509 16.83369 10757 ft 343 kts 303°
2026-05-05 20:34 47.83934 16.80525 10633 ft 343 kts 303°
2026-05-05 20:34 47.85354 16.77682 10499 ft 342 kts 303°
2026-05-05 20:35 47.86768 16.74846 10389 ft 341 kts 303°
2026-05-05 20:35 47.88158 16.72043 10266 ft 341 kts 303°
2026-05-05 20:35 47.89568 16.69212 10141 ft 340 kts 303°
2026-05-05 20:35 47.91043 16.66447 10027 ft 342 kts 309°
2026-05-05 20:36 47.92716 16.63933 9893 ft 339 kts 313°
2026-05-05 20:36 47.94393 16.61589 9782 ft 323 kts 314°
2026-05-05 20:36 47.95996 16.59359 9647 ft 308 kts 313°
2026-05-05 20:36 47.97523 16.57220 9515 ft 296 kts 313°
2026-05-05 20:37 47.98984 16.55144 9382 ft 293 kts 313°
2026-05-05 20:37 48.00459 16.53069 9253 ft 292 kts 314°
2026-05-05 20:37 48.01881 16.50909 9116 ft 289 kts 306°
2026-05-05 20:37 48.03013 16.48437 9001 ft 286 kts 299°
2026-05-05 20:38 48.04039 16.45891 8865 ft 285 kts 298°
2026-05-05 20:38 48.05044 16.43342 8754 ft 284 kts 298°
2026-05-05 20:38 48.06028 16.40829 8677 ft 284 kts 297°
2026-05-05 20:38 48.07046 16.38258 8603 ft 283 kts 298°
2026-05-05 20:39 48.08037 16.35762 8526 ft 283 kts 298°
2026-05-05 20:39 48.09038 16.33231 8449 ft 282 kts 298°
2026-05-05 20:39 48.10031 16.30695 8376 ft 282 kts 298°
2026-05-05 20:39 48.11016 16.28182 8295 ft 281 kts 298°
2026-05-05 20:40 48.11996 16.25650 8225 ft 280 kts 297°
2026-05-05 20:40 48.12894 16.23060 8132 ft 279 kts 295°
2026-05-05 20:40 48.13753 16.20459 8070 ft 279 kts 295°
2026-05-05 20:40 48.14599 16.17854 7997 ft 278 kts 295°
2026-05-05 20:41 48.15429 16.15283 7922 ft 278 kts 294°
2026-05-05 20:41 48.16270 16.12673 7846 ft 277 kts 295°
2026-05-05 20:41 48.17103 16.10073 7759 ft 277 kts 294°
2026-05-05 20:41 48.17924 16.07479 7687 ft 276 kts 294°
2026-05-05 20:42 48.18740 16.04904 7602 ft 266 kts 294°
2026-05-05 20:42 48.19517 16.02470 7524 ft 255 kts 294°
2026-05-05 20:42 48.20282 16.00081 7436 ft 253 kts 295°
2026-05-05 20:42 48.21042 15.97709 7376 ft 253 kts 295°
2026-05-05 20:43 48.21932 15.95434 7292 ft 253 kts 308°
2026-05-05 20:43 48.23310 15.93877 7225 ft 255 kts 336°
2026-05-05 20:43 48.25063 15.93510 6915 ft 260 kts
2026-05-05 20:43 48.26767 15.94377 6605 ft 259 kts 23°
2026-05-05 20:44 48.28270 15.95843 6240 ft 261 kts 44°
2026-05-05 20:44 48.29113 15.98223 5858 ft 263 kts 78°
2026-05-05 20:44 48.29032 16.00954 5459 ft 264 kts 103°
2026-05-05 20:44 48.28439 16.03555 5103 ft 263 kts 114°
2026-05-05 20:45 48.26821 16.08470 4982 ft 257 kts 117°
2026-05-05 20:45 48.26068 16.10780 4975 ft 243 kts 116°
2026-05-05 20:45 48.25359 16.12994 4955 ft 229 kts 116°
2026-05-05 20:46 48.24690 16.15077 4929 ft 215 kts 116°
2026-05-05 20:46 48.24045 16.17067 4923 ft 210 kts 116°
2026-05-05 20:46 48.23420 16.18990 4919 ft 196 kts 117°
2026-05-05 20:46 48.22841 16.20773 4949 ft 188 kts 117°
2026-05-05 20:47 48.22280 16.22503 4953 ft 179 kts 117°
2026-05-05 20:47 48.21748 16.24148 4920 ft 174 kts 117°
2026-05-05 20:47 48.21228 16.25750 4749 ft 173 kts 117°
2026-05-05 20:47 48.20703 16.27370 4505 ft 173 kts 117°
2026-05-05 20:48 48.20181 16.28991 4238 ft 174 kts 117°
2026-05-05 20:48 48.19652 16.30627 3973 ft 173 kts 117°
2026-05-05 20:48 48.19131 16.32240 3737 ft 170 kts 118°
2026-05-05 20:48 48.18629 16.33792 3499 ft 161 kts 119°
2026-05-05 20:49 48.18149 16.35270 3284 ft 154 kts 120°
2026-05-05 20:49 48.17690 16.36680 3086 ft 147 kts 120°
2026-05-05 20:49 48.17246 16.38055 2896 ft 146 kts 121°
2026-05-05 20:49 48.16812 16.39392 2708 ft 144 kts 121°
2026-05-05 20:50 48.16381 16.40721 2507 ft 139 kts 122°
2026-05-05 20:50 48.15962 16.42016 2339 ft 137 kts 124°
2026-05-05 20:50 48.15548 16.43291 2145 ft 134 kts 125°
2026-05-05 20:50 48.15138 16.44524 1937 ft 132 kts 125°
2026-05-05 20:51 48.14742 16.45763 1766 ft 131 kts 123°
2026-05-05 20:51 48.14355 16.47003 1592 ft 131 kts 124°
2026-05-05 20:51 48.13947 16.48213 1435 ft 130 kts 124°
2026-05-05 20:51 48.13546 16.49432 1260 ft 130 kts 121°
2026-05-05 20:52 48.13172 16.50639 1067 ft 128 kts 121°
2026-05-05 20:52 48.12781 16.51842 877 ft 128 kts 121°
2026-05-05 20:52 48.12393 16.53029 687 ft 126 kts 122°
2026-05-05 20:52 48.12033 16.54106 630 ft 116 kts 119°
2026-05-05 20:53 48.11789 16.54844 627 ft 37 kts 116°
2026-05-05 20:53 48.11682 16.55181 622 ft 35 kts 115°
2026-05-05 20:53 48.11560 16.55560 622 ft 46 kts 115°
2026-05-05 20:53 48.11502 16.55996 615 ft 31 kts 86°
2026-05-05 20:54 48.11545 16.56157 622 ft 8 kts 37°
2026-05-05 20:54 48.11600 16.56182 624 ft 10 kts 20°
2026-05-05 20:54 48.11668 16.56250 627 ft 14 kts 31°
2026-05-05 20:54 48.11747 16.56311 628 ft 9 kts 30°
2026-05-05 20:55 48.11758 16.56364 626 ft 6 kts 98°
2026-05-05 20:55 48.11736 16.56436 627 ft 9 kts 116°
2026-05-05 20:55 48.11705 16.56537 623 ft 10 kts 110°
2026-05-05 20:55 48.11707 16.56551 624 ft 1 kts 68°
2026-05-05 20:56 48.11713 16.56554 621 ft 2 kts 36°
2026-05-05 20:56 48.11742 16.56571 620 ft 6 kts 25°
2026-05-05 20:56 48.11770 16.56592 624 ft 3 kts 26°
2026-05-05 20:56 48.11773 16.56594 624 ft 0 kts 26°